Tracking 19909 objects as of 21-Oct-2019
HD Live streaming from Space Station
objects crossing your sky now

SL-23 R/B

Track SL-23 R/B now!


NORAD ID: 34112
Int'l Code: 2009-009B
Perigee: 1,492.0 km
Apogee: 35,642.3 km
Inclination: 34.4 °
Period: 653.2 minutes
Semi major axis: 24938 km
RCS: 13.401 m2 (large)
Launch date: February 26, 2009
Source: Commonwealth of Independent States (former USSR) (CIS)
Launch site: TYURATAM MISSILE AND SPACE COMPLEX (TTMTR)

Note: This is a ROCKET BODY
aabbcc
Your satellite tracking list
Your tracking list is empty




NASA's NSSDC Master Catalog

Two Line Element Set (TLE):
1 34112U 09009B   19292.76143176 -.00000107 +00000-0 +00000-0 0  9996
2 34112 034.4414 169.3322 6846992 355.9640 247.8344 02.20447809085714
Source of the keplerian elements: AFSPC